TimeCST,TemperatureF,Dew PointF,Humidity,Sea Level PressureIn,VisibilityMPH,Wind Direction,Wind SpeedMPH,Gust SpeedMPH,PrecipitationIn,Events,Conditions,WindDirDegrees,DateUTC
12:00 AM,80,74,76,30.00,12,East,8.1,,,,Partly Cloudy,90,2012-11-12 06:00:00
12:00 AM,78.8,73.4,83,29.98,6.2,East,8.1,-,N/A,,Partly Cloudy,90,2012-11-12 06:00:00
3:00 AM,79,74,81,29.96,12,East,3.5,,,,Mostly Cloudy,100,2012-11-12 09:00:00
5:00 AM,75.2,73.4,94,29.95,6.2,East,2.3,-,N/A,,Mostly Cloudy,90,2012-11-12 11:00:00
6:00 AM,76,74,90,29.97,12,NNW,3.5,,,,Partly Cloudy,330,2012-11-12 12:00:00
6:00 AM,75.2,73.4,94,29.95,6.2,NNW,3.5,-,N/A,,Mostly Cloudy,330,2012-11-12 12:00:00
7:00 AM,77.0,75.2,94,29.98,6.2,Calm,Calm,-,N/A,,Mostly Cloudy,0,2012-11-12 13:00:00
8:00 AM,80.6,73.4,79,30.01,6.2,East,6.9,-,N/A,,Mostly Cloudy,90,2012-11-12 14:00:00
9:00 AM,82,74,69,30.04,12,East,8.1,,,,Mostly Cloudy,80,2012-11-12 15:00:00
9:00 AM,82.4,73.4,74,30.03,6.2,East,8.1,-,N/A,,Mostly Cloudy,80,2012-11-12 15:00:00
10:00 AM,82.4,73.4,74,30.05,6.2,ENE,9.2,-,N/A,,Mostly Cloudy,70,2012-11-12 16:00:00
11:00 AM,86.0,73.4,66,30.03,6.2,ENE,10.4,-,N/A,,Scattered Clouds,70,2012-11-12 17:00:00
12:00 PM,85,73,59,30.01,12,ENE,10.4,,,,Partly Cloudy,60,2012-11-12 18:00:00
12:00 PM,84.2,73.4,70,30.01,6.2,ENE,10.4,-,N/A,,Scattered Clouds,60,2012-11-12 18:00:00
1:00 PM,86.0,71.6,62,29.98,6.2,ENE,11.5,-,N/A,,Scattered Clouds,60,2012-11-12 19:00:00
2:00 PM,86.0,73.4,66,29.96,6.2,ENE,10.4,-,N/A,,Partly Cloudy,70,2012-11-12 20:00:00
3:00 PM,84,73,62,29.96,12,ENE,10.4,,,,Partly Cloudy,60,2012-11-12 21:00:00
3:00 PM,84.2,73.4,70,29.95,6.2,ENE,10.4,-,N/A,,Scattered Clouds,60,2012-11-12 21:00:00
4:00 PM,84.2,73.4,70,29.95,6.2,ENE,8.1,-,N/A,,Partly Cloudy,70,2012-11-12 22:00:00
5:00 PM,82.4,71.6,70,29.96,6.2,ENE,6.9,-,N/A,,Partly Cloudy,60,2012-11-12 23:00:00
6:00 PM,81,74,73,29.99,12,East,4.6,,,,Scattered Clouds,80,2012-11-13 00:00:00
6:00 PM,80.6,73.4,79,29.98,6.2,East,4.6,-,N/A,,Partly Cloudy,80,2012-11-13 00:00:00
9:00 PM,79,74,79,30.04,12,NNE,3.5,,,,Scattered Clouds,30,2012-11-13 03:00:00